Regional Weather Roundup
Issued by NWS

Home | Current Version | Previous Version | Graphics & Text | Print | Product List | Glossary On
Versions: 1 2 3 4 5 6 7 8 9 10 11 12 13 14 15 16 17 18 19 20 21 22 23 24 25 26 27 28 29 30 31 32 33 34 35 36 37 38 39 40 41 42 43 44 45 46 47 48 49 50
000
ASUS45 KSLC 171010
RWRUT

UTAH REGIONAL WEATHER ROUNDUP
NATIONAL WEATHER SERVICE SALT LAKE CITY UT
400 AM MDT FRI APR 17 2015

UTZ001>011-023>025-171100-

NORTHERN UTAH

CITY           SKY/WX    TMP DP  RH WIND       PRES   REMARKS
BRIGHAM CITY     N/A     45  29  53 N6        30.16R
HILL AFB       NOT AVBL
LOGAN          CLEAR     37  32  82 W3        30.16S
OGDEN            N/A     43  29  57 CALM      30.13R
PROVO AIRPORT    N/A     34  28  80 SE6       30.12S WCI  29
SALT LAKE CITY   N/A     39  30  70 W7        30.12S WCI  34
VERNAL         CLOUDY    42  28  57 N18G31    30.07F
WENDOVER         N/A     46  23  39 E7        30.16S
HEBER CITY       N/A     36  27  69 E12G18    30.12F WCI  27
WEST JORDAN    CLEAR     45  30  57 N22G28    30.12S

$$

UTZ012>022-026-027-171100-

SOUTHERN/CENTRAL UTAH

CITY           SKY/WX    TMP DP  RH WIND       PRES   REMARKS
BRYCE CANYON   CLOUDY    20  18  92 W6        30.10F FOG     WCI  12
CEDAR CITY       N/A     30  27  88 SE5       30.12R WCI  25
HANKSVILLE     CLOUDY    37  36  93 S8        30.07S WCI  31
MILFORD          N/A     31  28  89 CALM      30.11F
MOAB/CYNLANDS  LGT SNOW  32  32 100 E3        30.02F
PRICE          NOT AVBL
ST GEORGE        N/A     46  27  46 E9        30.13S

$$

REGIONAL REPORTS     COLORADO/ARIZONA

CITY           SKY/WX    TMP DP  RH WIND       PRES   REMARKS
CRAIG, CO      LGT SNOW  33  31  92 CALM      30.05S FOG
GRAND JUNCTION CLOUDY    37  36  96 N5        30.00S WCI  33
RIFLE          CLOUDY    39  35  86 CALM      29.98F
MONTROSE       LGT SNOW  32  32 100 CALM      30.04R VSB 1
CORTEZ         PTCLDY    28  16  60 CALM      30.05S
PAGE, AZ         N/A     42  34  73 SW3       30.09F
GRAND CANYON   FOG       25  24  96 CALM      30.12F VSB 1/2
KINGMAN          N/A     47  27  45 SE8       30.09F
FLAGSTAFF        N/A     27  26  96 S3        30.08S FOG

$$

REGIONAL REPORTS    NEVADA/IDAHO/WYOMING

CITY           SKY/WX    TMP DP  RH WIND       PRES   REMARKS
LAS VEGAS, NV    N/A     60  21  22 CALM      30.03F
ELY              N/A     21  11  65 S7        30.19R WCI  12
ELKO             N/A     31  21  66 E6        30.20R WCI  25
POCATELLO, ID  CLEAR     37  28  70 S5        30.19R WCI  33
BURLEY           N/A     33  23  66 SW3       30.17S
EVANSTON, WY   CLOUDY    30  27  88 N8        30.18F WCI  22
ROCK SPRINGS   CLOUDY    33  27  78 NE15      30.17F WCI  23

$$



USA.gov is the U.S. government's official web portal to all federal, state and local government web resources and services.